FLE2705 MMPR-CYEG

Flight info

Callsign FLE2705
Flight time 4h 42m
Altitude 32000
Route BOBDI1A BOBDI UT4 LMM UJ3 BAMPO/N0466F340 UJ3 HMO J92 TUS DCT INW DCT HVE DCT PUC DCT HLN DCT KU15O DCT MIREK Q995 OILRS OILRS2
Aircraft B738/M-SDE2E3FGHIRWXY/LB1

Departure

Time 2026-04-27 13:40
Airport Puerto Vallarta International Airport (MMPR)

Arrival

Time 2026-04-27 18:22
Airport Edmonton International Airport (CYEG)
Time Latitude Longitude Altitude Speed Heading
2026-04-27 13:03 20.67931 -105.24854 28 ft 0 kts 227°
2026-04-27 13:31 20.67934 -105.24851 28 ft 4 kts 229°
2026-04-27 13:31 20.67948 -105.24827 28 ft 4 kts 253°
2026-04-27 13:31 20.67951 -105.24800 28 ft 4 kts 285°
2026-04-27 13:32 20.67941 -105.24779 28 ft 1 kts 317°
2026-04-27 13:34 20.67949 -105.24786 28 ft 4 kts 317°
2026-04-27 13:34 20.67987 -105.24829 28 ft 12 kts 302°
2026-04-27 13:34 20.67980 -105.24915 28 ft 10 kts 276°
2026-04-27 13:34 20.68022 -105.24971 28 ft 10 kts 316°
2026-04-27 13:35 20.68072 -105.25019 28 ft 10 kts 316°
2026-04-27 13:35 20.68073 -105.25084 28 ft 10 kts 233°
2026-04-27 13:35 20.68016 -105.25150 28 ft 14 kts 227°
2026-04-27 13:35 20.67943 -105.25233 28 ft 17 kts 227°
2026-04-27 13:36 20.67855 -105.25335 28 ft 20 kts 227°
2026-04-27 13:36 20.67758 -105.25448 28 ft 20 kts 227°
2026-04-27 13:36 20.67662 -105.25557 28 ft 20 kts 227°
2026-04-27 13:36 20.67570 -105.25663 28 ft 19 kts 227°
2026-04-27 13:37 20.67481 -105.25765 28 ft 19 kts 227°
2026-04-27 13:37 20.67395 -105.25864 28 ft 18 kts 227°
2026-04-27 13:37 20.67312 -105.25959 28 ft 17 kts 227°
2026-04-27 13:37 20.67231 -105.26051 28 ft 17 kts 227°
2026-04-27 13:38 20.67154 -105.26140 28 ft 16 kts 227°
2026-04-27 13:38 20.67080 -105.26226 29 ft 15 kts 227°
2026-04-27 13:38 20.67004 -105.26312 29 ft 17 kts 227°
2026-04-27 13:38 20.66978 -105.26418 29 ft 16 kts 300°
2026-04-27 13:39 20.67063 -105.26484 30 ft 15 kts
2026-04-27 13:39 20.67142 -105.26414 30 ft 16 kts 47°
2026-04-27 13:39 20.67355 -105.26169 29 ft 79 kts 47°
2026-04-27 13:39 20.67877 -105.25570 30 ft 139 kts 47°
2026-04-27 13:40 20.68655 -105.24686 94 ft 183 kts 46°
2026-04-27 13:40 20.69573 -105.23635 468 ft 205 kts 47°
2026-04-27 13:40 20.70568 -105.22494 1017 ft 212 kts 48°
2026-04-27 13:40 20.71582 -105.21334 1670 ft 214 kts 48°
2026-04-27 13:41 20.72625 -105.20138 2079 ft 226 kts 48°
2026-04-27 13:41 20.73706 -105.18893 2590 ft 231 kts 47°
2026-04-27 13:41 20.74801 -105.17630 3218 ft 232 kts 47°
2026-04-27 13:41 20.75903 -105.16357 3754 ft 234 kts 47°
2026-04-27 13:42 20.77017 -105.15070 4167 ft 238 kts 47°
2026-04-27 13:42 20.78149 -105.13759 4659 ft 241 kts 47°
2026-04-27 13:42 20.79291 -105.12437 5161 ft 242 kts 47°
2026-04-27 13:42 20.80438 -105.11108 5643 ft 245 kts 47°
2026-04-27 13:43 20.81621 -105.09788 6104 ft 247 kts 39°
2026-04-27 13:43 20.83141 -105.08939 6521 ft 251 kts 22°
2026-04-27 13:43 20.84894 -105.08443 6611 ft 272 kts
2026-04-27 13:43 20.86844 -105.08420 6954 ft 285 kts 359°
2026-04-27 13:44 20.88844 -105.08430 7515 ft 290 kts 360°
2026-04-27 13:44 20.90882 -105.08428 8083 ft 296 kts 360°
2026-04-27 13:44 20.92959 -105.08411 8679 ft 300 kts
2026-04-27 13:44 20.95049 -105.08380 9331 ft 302 kts
2026-04-27 13:45 20.97168 -105.08341 9905 ft 307 kts
2026-04-27 13:45 20.99339 -105.08295 10276 ft 320 kts
2026-04-27 13:45 21.01636 -105.08243 10410 ft 340 kts
2026-04-27 13:45 21.04070 -105.08187 10546 ft 359 kts
2026-04-27 13:46 21.06630 -105.08126 10677 ft 376 kts
2026-04-27 13:46 21.09303 -105.08062 10832 ft 391 kts
2026-04-27 13:46 21.12043 -105.07997 11203 ft 396 kts
2026-04-27 13:46 21.14810 -105.08071 11653 ft 400 kts 349°
2026-04-27 13:47 21.17412 -105.09096 12102 ft 401 kts 327°
2026-04-27 13:47 21.19525 -105.11019 12603 ft 400 kts 308°
2026-04-27 13:47 21.21007 -105.13519 13052 ft 399 kts 290°
2026-04-27 13:47 21.21873 -105.16344 13522 ft 400 kts 284°
2026-04-27 13:48 21.22647 -105.19216 13946 ft 403 kts 283°
2026-04-27 13:48 21.23417 -105.22116 14376 ft 405 kts 283°
2026-04-27 13:48 21.24196 -105.25018 14849 ft 406 kts 284°
2026-04-27 13:48 21.24987 -105.27920 15313 ft 407 kts 284°
2026-04-27 13:49 21.25791 -105.30837 15755 ft 408 kts 284°
2026-04-27 13:49 21.26601 -105.33753 16198 ft 409 kts 285°
2026-04-27 13:49 21.27416 -105.36683 16613 ft 411 kts 285°
2026-04-27 13:49 21.28236 -105.39628 17025 ft 413 kts 285°
2026-04-27 13:50 21.29048 -105.42546 17432 ft 415 kts 285°
2026-04-27 13:50 21.29883 -105.45550 17839 ft 416 kts 285°
2026-04-27 13:50 21.30711 -105.48533 18229 ft 418 kts 285°
2026-04-27 13:50 21.31538 -105.51527 18572 ft 419 kts 285°
2026-04-27 13:51 21.32366 -105.54532 18921 ft 420 kts 285°
2026-04-27 13:51 21.33192 -105.57538 19280 ft 421 kts 285°
2026-04-27 13:51 21.34021 -105.60558 19623 ft 423 kts 285°
2026-04-27 13:51 21.34841 -105.63544 19951 ft 424 kts 284°
2026-04-27 13:52 21.35676 -105.66583 20285 ft 425 kts 284°
2026-04-27 13:52 21.36512 -105.69631 20611 ft 427 kts 284°
2026-04-27 13:52 21.37438 -105.72664 20915 ft 430 kts 293°
2026-04-27 13:52 21.39084 -105.75357 21225 ft 436 kts 310°
2026-04-27 13:53 21.43909 -105.79356 21935 ft 442 kts 323°
2026-04-27 13:53 21.46467 -105.81207 22183 ft 445 kts 323°
2026-04-27 13:53 21.49047 -105.83068 22440 ft 447 kts 323°
2026-04-27 13:54 21.51621 -105.84938 22732 ft 448 kts 323°
2026-04-27 13:54 21.54197 -105.86827 23029 ft 449 kts 322°
2026-04-27 13:54 21.56772 -105.88730 23307 ft 450 kts 322°
2026-04-27 13:54 21.59353 -105.90648 23554 ft 452 kts 322°
2026-04-27 13:55 21.61944 -105.92578 23782 ft 453 kts 322°
2026-04-27 13:55 21.64535 -105.94511 24003 ft 454 kts 322°
2026-04-27 13:55 21.67139 -105.96455 24229 ft 455 kts 322°
2026-04-27 13:55 21.69739 -105.98396 24471 ft 456 kts 322°
2026-04-27 13:56 21.72351 -106.00346 24703 ft 457 kts 322°
2026-04-27 13:56 21.74962 -106.02297 24882 ft 459 kts 322°
2026-04-27 13:56 21.77589 -106.04261 25072 ft 460 kts 322°
2026-04-27 13:56 21.80229 -106.06234 25285 ft 461 kts 322°
2026-04-27 13:57 21.82865 -106.08205 25501 ft 462 kts 322°
2026-04-27 13:57 21.85506 -106.10182 25708 ft 463 kts 322°
2026-04-27 13:57 21.88156 -106.12165 25903 ft 464 kts 322°
2026-04-27 13:57 21.90810 -106.14153 26096 ft 466 kts 322°
2026-04-27 13:58 21.93476 -106.16151 26289 ft 467 kts 322°
2026-04-27 13:58 21.96137 -106.18146 26482 ft 467 kts 321°
2026-04-27 13:58 21.98808 -106.20149 26681 ft 469 kts 321°
2026-04-27 13:58 22.01489 -106.22161 26864 ft 470 kts 321°
2026-04-27 13:59 22.04169 -106.24173 27043 ft 471 kts 321°
2026-04-27 13:59 22.06862 -106.26196 27221 ft 472 kts 321°
2026-04-27 13:59 22.09555 -106.28220 27425 ft 472 kts 321°
2026-04-27 13:59 22.12245 -106.30242 27697 ft 471 kts 321°
2026-04-27 14:00 22.14924 -106.32256 28001 ft 469 kts 321°
2026-04-27 14:00 22.17593 -106.34265 28285 ft 468 kts 321°
2026-04-27 14:00 22.20260 -106.36272 28541 ft 467 kts 321°
2026-04-27 14:00 22.22929 -106.38281 28785 ft 467 kts 321°
2026-04-27 14:01 22.25588 -106.40284 29072 ft 466 kts 321°
2026-04-27 14:01 22.28240 -106.42282 29431 ft 463 kts 321°
2026-04-27 14:01 22.30874 -106.44267 29813 ft 461 kts 321°
2026-04-27 14:01 22.33495 -106.46244 30107 ft 459 kts 321°
2026-04-27 14:02 22.36118 -106.48224 30343 ft 459 kts 320°
2026-04-27 14:02 22.38727 -106.50196 30621 ft 457 kts 320°
2026-04-27 14:02 22.41329 -106.52162 30940 ft 455 kts 320°
2026-04-27 14:02 22.43913 -106.54115 31249 ft 452 kts 320°
2026-04-27 14:03 22.46486 -106.56061 31540 ft 450 kts 320°
2026-04-27 14:03 22.49048 -106.57999 31819 ft 449 kts 320°
2026-04-27 14:03 22.51598 -106.59930 32116 ft 447 kts 320°
2026-04-27 14:03 22.54142 -106.61857 32414 ft 445 kts 320°
2026-04-27 14:04 22.56669 -106.63772 32718 ft 443 kts 320°
2026-04-27 14:04 22.59187 -106.65681 32989 ft 442 kts 320°
2026-04-27 14:04 22.61702 -106.67589 33232 ft 440 kts 320°
2026-04-27 14:04 22.64207 -106.69490 33496 ft 439 kts 319°
2026-04-27 14:05 22.66670 -106.71359 33769 ft 437 kts 319°
2026-04-27 14:05 22.69154 -106.73246 33981 ft 436 kts 319°
2026-04-27 14:05 22.71649 -106.75144 33952 ft 439 kts 319°
2026-04-27 14:06 22.76633 -106.78934 33969 ft 436 kts 319°
2026-04-27 14:06 22.80753 -106.82068 33967 ft 434 kts 319°
2026-04-27 14:07 22.85689 -106.85827 33969 ft 432 kts 319°
2026-04-27 14:07 22.90603 -106.89574 33968 ft 432 kts 319°
2026-04-27 14:08 22.95512 -106.93320 33958 ft 432 kts 319°
2026-04-27 14:08 23.00430 -106.97077 33962 ft 433 kts 319°
2026-04-27 14:09 23.05361 -107.00847 33967 ft 434 kts 319°
2026-04-27 14:09 23.10313 -107.04637 33965 ft 436 kts 319°
2026-04-27 14:10 23.15277 -107.08438 33962 ft 438 kts 318°
2026-04-27 14:10 23.20261 -107.12257 33968 ft 439 kts 318°
2026-04-27 14:11 23.25257 -107.16089 33963 ft 440 kts 318°
2026-04-27 14:11 23.30251 -107.19924 33962 ft 440 kts 318°
2026-04-27 14:12 23.35249 -107.23766 33962 ft 440 kts 318°
2026-04-27 14:12 23.40211 -107.27583 33961 ft 439 kts 318°
2026-04-27 14:13 23.45193 -107.31420 33965 ft 439 kts 318°
2026-04-27 14:13 23.50173 -107.35259 33962 ft 438 kts 318°
2026-04-27 14:14 23.55144 -107.39095 33964 ft 438 kts 318°
2026-04-27 14:14 23.60108 -107.42929 33971 ft 437 kts 318°
2026-04-27 14:15 23.65069 -107.46765 33963 ft 437 kts 318°
2026-04-27 14:15 23.70021 -107.50597 33969 ft 436 kts 318°
2026-04-27 14:16 23.74971 -107.54431 33966 ft 436 kts 318°
2026-04-27 14:16 23.79910 -107.58261 33967 ft 436 kts 318°
2026-04-27 14:17 23.84854 -107.62098 33969 ft 436 kts 318°
2026-04-27 14:17 23.89794 -107.65935 33967 ft 436 kts 318°
2026-04-27 14:18 23.94732 -107.69775 33970 ft 436 kts 318°
2026-04-27 14:18 23.99678 -107.73625 33965 ft 437 kts 318°
2026-04-27 14:19 24.04627 -107.77481 33962 ft 437 kts 317°
2026-04-27 14:19 24.09584 -107.81347 33968 ft 438 kts 317°
2026-04-27 14:20 24.14545 -107.85219 33957 ft 438 kts 317°
2026-04-27 14:20 24.19506 -107.89095 33966 ft 438 kts 317°
2026-04-27 14:21 24.24470 -107.92977 33982 ft 439 kts 317°
2026-04-27 14:21 24.29440 -107.96868 33972 ft 439 kts 317°
2026-04-27 14:22 24.34415 -108.00767 33963 ft 440 kts 317°
2026-04-27 14:22 24.39400 -108.04677 33964 ft 440 kts 317°
2026-04-27 14:23 24.44345 -108.08559 33964 ft 440 kts 317°
2026-04-27 14:23 24.49324 -108.12472 33963 ft 440 kts 317°
2026-04-27 14:24 24.54303 -108.16389 33975 ft 440 kts 317°
2026-04-27 14:24 24.59318 -108.20339 33965 ft 441 kts 317°
2026-04-27 14:25 24.64299 -108.24265 33964 ft 441 kts 317°
2026-04-27 14:25 24.69278 -108.28194 33965 ft 441 kts 317°
2026-04-27 14:26 24.74223 -108.32101 33961 ft 440 kts 317°
2026-04-27 14:26 24.79201 -108.36037 33970 ft 440 kts 317°
2026-04-27 14:27 24.84174 -108.39973 33967 ft 440 kts 317°
2026-04-27 14:27 24.89147 -108.43913 33969 ft 440 kts 317°
2026-04-27 14:28 24.94117 -108.47854 33962 ft 440 kts 317°
2026-04-27 14:28 24.99088 -108.51801 33961 ft 440 kts 317°
2026-04-27 14:29 25.04058 -108.55751 33958 ft 440 kts 317°
2026-04-27 14:29 25.09026 -108.59703 33974 ft 440 kts 317°
2026-04-27 14:30 25.13993 -108.63660 33976 ft 441 kts 317°
2026-04-27 14:30 25.18964 -108.67623 33965 ft 441 kts 317°
2026-04-27 14:31 25.23934 -108.71589 33960 ft 441 kts 317°
2026-04-27 14:31 25.28904 -108.75559 33958 ft 441 kts 317°
2026-04-27 14:32 25.33877 -108.79537 33984 ft 441 kts 317°
2026-04-27 14:32 25.38844 -108.83515 33969 ft 441 kts 316°
2026-04-27 14:33 25.43808 -108.87495 33962 ft 440 kts 316°
2026-04-27 14:33 25.48761 -108.91471 33968 ft 439 kts 316°
2026-04-27 14:34 25.53706 -108.95445 33974 ft 439 kts 316°
2026-04-27 14:34 25.58646 -108.99419 33972 ft 439 kts 316°
2026-04-27 14:35 25.63576 -109.03389 33986 ft 438 kts 316°
2026-04-27 14:35 25.68593 -109.07247 33976 ft 444 kts 323°
2026-04-27 14:36 25.74356 -109.09978 33980 ft 453 kts 331°
2026-04-27 14:36 25.80229 -109.12486 33987 ft 452 kts 330°
2026-04-27 14:37 25.86078 -109.15030 33970 ft 451 kts 330°
2026-04-27 14:37 25.91875 -109.17587 33970 ft 451 kts 330°
2026-04-27 14:38 25.97706 -109.20168 33964 ft 451 kts 330°
2026-04-27 14:38 26.03540 -109.22751 33967 ft 451 kts 330°
2026-04-27 14:39 26.09381 -109.25340 33961 ft 452 kts 330°
2026-04-27 14:39 26.15218 -109.27928 33992 ft 452 kts 329°
2026-04-27 14:40 26.21070 -109.30524 33967 ft 453 kts 329°
2026-04-27 14:40 26.26916 -109.33119 33961 ft 453 kts 329°
2026-04-27 14:41 26.32768 -109.35720 33964 ft 453 kts 329°
2026-04-27 14:41 26.38617 -109.38323 33965 ft 453 kts 329°
2026-04-27 14:42 26.44467 -109.40930 33962 ft 453 kts 329°
2026-04-27 14:42 26.50316 -109.43539 33961 ft 453 kts 329°
2026-04-27 14:43 26.56163 -109.46150 33968 ft 453 kts 329°
2026-04-27 14:43 26.62010 -109.48764 33964 ft 453 kts 329°
2026-04-27 14:44 26.67861 -109.51383 33968 ft 453 kts 329°
2026-04-27 14:44 26.73712 -109.54005 33968 ft 453 kts 329°
2026-04-27 14:45 26.79564 -109.56630 33967 ft 453 kts 329°
2026-04-27 14:45 26.85372 -109.59238 33965 ft 453 kts 329°
2026-04-27 14:46 26.91225 -109.61869 33964 ft 453 kts 329°
2026-04-27 14:46 26.97074 -109.64502 33987 ft 453 kts 328°
2026-04-27 14:47 27.02923 -109.67138 33971 ft 453 kts 328°
2026-04-27 14:47 27.08778 -109.69779 33965 ft 453 kts 328°
2026-04-27 14:48 27.14626 -109.72420 33969 ft 453 kts 328°
2026-04-27 14:48 27.23399 -109.76392 34005 ft 453 kts 328°
2026-04-27 14:49 27.29248 -109.79044 33981 ft 453 kts 328°
2026-04-27 14:49 27.35094 -109.81697 33986 ft 453 kts 328°
2026-04-27 14:50 27.40845 -109.84504 33971 ft 442 kts 320°
2026-04-27 14:50 27.46019 -109.88138 33963 ft 437 kts 317°
2026-04-27 14:51 27.51140 -109.91839 33976 ft 438 kts 317°
2026-04-27 14:51 27.55424 -109.94891 33975 ft 438 kts 317°
2026-04-27 14:52 27.61463 -109.99153 33968 ft 438 kts 317°
2026-04-27 14:52 27.66625 -110.02793 33968 ft 438 kts 317°
2026-04-27 14:53 27.71783 -110.06437 33973 ft 437 kts 317°
2026-04-27 14:53 27.76067 -110.09467 33996 ft 437 kts 317°
2026-04-27 14:54 27.81225 -110.13120 33978 ft 437 kts 317°
2026-04-27 14:54 27.87212 -110.17361 33980 ft 437 kts 317°
2026-04-27 14:55 27.91521 -110.20419 33983 ft 436 kts 317°
2026-04-27 14:55 27.96656 -110.24066 33974 ft 436 kts 317°
2026-04-27 14:56 28.01792 -110.27713 33994 ft 436 kts 317°
2026-04-27 14:56 28.06925 -110.31359 33987 ft 435 kts 317°
2026-04-27 14:57 28.12045 -110.35002 33982 ft 434 kts 317°
2026-04-27 14:57 28.17152 -110.38639 33985 ft 433 kts 317°
2026-04-27 14:58 28.22251 -110.42277 33988 ft 433 kts 317°
2026-04-27 14:58 28.27349 -110.45919 34001 ft 433 kts 317°
2026-04-27 14:59 28.32420 -110.49546 33995 ft 434 kts 317°
2026-04-27 14:59 28.37528 -110.53202 33995 ft 434 kts 317°
2026-04-27 15:00 28.42670 -110.56887 33997 ft 434 kts 317°
2026-04-27 15:00 28.47739 -110.60523 34003 ft 434 kts 317°
2026-04-27 15:01 28.52850 -110.64195 34005 ft 435 kts 316°
2026-04-27 15:01 28.57959 -110.67869 34001 ft 435 kts 316°
2026-04-27 15:02 28.63067 -110.71547 34003 ft 435 kts 316°
2026-04-27 15:02 28.68180 -110.75232 34000 ft 435 kts 316°
2026-04-27 15:03 28.73287 -110.78910 34004 ft 434 kts 316°
2026-04-27 15:03 28.78395 -110.82594 34011 ft 435 kts 316°
2026-04-27 15:04 28.83504 -110.86282 34017 ft 435 kts 316°
2026-04-27 15:04 28.88619 -110.89982 34020 ft 435 kts 316°
2026-04-27 15:05 28.93730 -110.93681 34016 ft 435 kts 316°
2026-04-27 15:05 28.98846 -110.97390 34022 ft 436 kts 316°
2026-04-27 15:06 29.03969 -111.01108 34025 ft 436 kts 316°
2026-04-27 15:06 29.09507 -111.04228 34021 ft 461 kts 333°
2026-04-27 15:07 29.12695 -111.04999 34023 ft 476 kts 342°
2026-04-27 15:07 29.16057 -111.05134 34026 ft 489 kts 351°
2026-04-27 15:07 29.22886 -111.04755 34022 ft 493 kts 353°
2026-04-27 15:08 29.29734 -111.04336 34012 ft 492 kts 352°
2026-04-27 15:08 29.36524 -111.04006 34005 ft 491 kts 351°
2026-04-27 15:09 29.43344 -111.03711 33995 ft 491 kts 351°
2026-04-27 15:09 29.50167 -111.03414 33998 ft 490 kts 351°
2026-04-27 15:10 29.56970 -111.03112 33999 ft 489 kts 351°
2026-04-27 15:10 29.63771 -111.02807 33994 ft 489 kts 351°
2026-04-27 15:11 29.70567 -111.02493 33996 ft 488 kts 351°
2026-04-27 15:11 29.77344 -111.02179 33994 ft 488 kts 351°
2026-04-27 15:12 29.84127 -111.01867 33995 ft 488 kts 351°
2026-04-27 15:12 29.90907 -111.01554 33993 ft 488 kts 351°
2026-04-27 15:13 29.97699 -111.01240 33989 ft 488 kts 351°
2026-04-27 15:13 30.04495 -111.00925 33991 ft 489 kts 351°
2026-04-27 15:14 30.11303 -111.00610 33987 ft 491 kts 351°
2026-04-27 15:14 30.18121 -111.00309 33982 ft 491 kts 351°
2026-04-27 15:15 30.24953 -111.00017 33982 ft 491 kts 351°
2026-04-27 15:15 30.31791 -110.99723 33975 ft 492 kts 351°
2026-04-27 15:16 30.38632 -110.99426 33981 ft 493 kts 351°
2026-04-27 15:16 30.45482 -110.99127 33981 ft 492 kts 351°
2026-04-27 15:17 30.52328 -110.98826 33974 ft 492 kts 351°
2026-04-27 15:17 30.59174 -110.98487 33963 ft 492 kts 351°
2026-04-27 15:18 30.65961 -110.98142 33980 ft 491 kts 351°
2026-04-27 15:18 30.72760 -110.97800 34002 ft 487 kts 351°
2026-04-27 15:19 30.79541 -110.97463 33981 ft 488 kts 351°
2026-04-27 15:19 30.86325 -110.97140 34002 ft 488 kts 351°
2026-04-27 15:20 30.93116 -110.96837 33977 ft 489 kts 350°
2026-04-27 15:20 30.99916 -110.96531 33965 ft 490 kts 351°
2026-04-27 15:21 31.06734 -110.96220 33958 ft 490 kts 351°
2026-04-27 15:21 31.13548 -110.95906 34025 ft 490 kts 351°
2026-04-27 15:22 31.20370 -110.95594 34037 ft 491 kts 351°
2026-04-27 15:22 31.27201 -110.95281 34052 ft 492 kts 351°
2026-04-27 15:23 31.34040 -110.94966 34085 ft 492 kts 351°
2026-04-27 15:23 31.40874 -110.94654 34135 ft 492 kts 351°
2026-04-27 15:24 31.47672 -110.94345 34105 ft 492 kts 351°
2026-04-27 15:24 31.54514 -110.94032 34063 ft 492 kts 351°
2026-04-27 15:25 31.61343 -110.93718 34044 ft 491 kts 351°
2026-04-27 15:25 31.68165 -110.93405 33970 ft 490 kts 351°
2026-04-27 15:26 31.74985 -110.93093 33965 ft 490 kts 351°
2026-04-27 15:26 31.81793 -110.92779 34005 ft 489 kts 351°
2026-04-27 15:27 31.88589 -110.92466 34032 ft 488 kts 351°
2026-04-27 15:27 31.95373 -110.92154 34080 ft 488 kts 351°
2026-04-27 15:28 32.02167 -110.91840 34098 ft 488 kts 351°
2026-04-27 15:28 32.08949 -110.91526 34102 ft 488 kts 351°
2026-04-27 15:29 32.15729 -110.91240 34088 ft 487 kts 350°
2026-04-27 15:29 32.22503 -110.90983 34091 ft 488 kts 350°
2026-04-27 15:30 32.29283 -110.90724 34087 ft 488 kts 350°
2026-04-27 15:30 32.36072 -110.90460 34082 ft 488 kts 350°
2026-04-27 15:31 32.42856 -110.90194 34107 ft 488 kts 350°
2026-04-27 15:31 32.49651 -110.89925 34078 ft 489 kts 350°
2026-04-27 15:32 32.56448 -110.89656 34063 ft 488 kts 350°
2026-04-27 15:32 32.63244 -110.89387 34055 ft 488 kts 350°
2026-04-27 15:33 32.70028 -110.89118 34081 ft 488 kts 351°
2026-04-27 15:33 32.76811 -110.88849 34045 ft 487 kts 351°
2026-04-27 15:34 32.83538 -110.88582 34028 ft 487 kts 351°
2026-04-27 15:34 32.90350 -110.88310 34028 ft 486 kts 351°
2026-04-27 15:35 32.97063 -110.88043 34019 ft 486 kts 351°
2026-04-27 15:35 33.03856 -110.87772 34012 ft 485 kts 351°
2026-04-27 15:36 33.10563 -110.87505 34009 ft 485 kts 351°
2026-04-27 15:36 33.17311 -110.87236 33992 ft 486 kts 351°
2026-04-27 15:37 33.24079 -110.86965 33993 ft 487 kts 351°
2026-04-27 15:37 33.30856 -110.86694 33992 ft 488 kts 351°
2026-04-27 15:38 33.37638 -110.86420 33997 ft 487 kts 351°
2026-04-27 15:38 33.44404 -110.86146 34021 ft 487 kts 351°
2026-04-27 15:39 33.51182 -110.85873 34002 ft 487 kts 351°
2026-04-27 15:39 33.57951 -110.85600 33999 ft 487 kts 351°
2026-04-27 15:40 33.64727 -110.85326 34002 ft 487 kts 351°
2026-04-27 15:40 33.71501 -110.85052 34028 ft 487 kts 351°
2026-04-27 15:41 33.78291 -110.84777 34010 ft 488 kts 351°
2026-04-27 15:41 33.83927 -110.84547 34008 ft 487 kts 351°
2026-04-27 15:42 33.90701 -110.84270 34011 ft 487 kts 351°
2026-04-27 15:42 33.97485 -110.83995 34014 ft 488 kts 351°
2026-04-27 15:43 34.04262 -110.83718 34023 ft 487 kts 351°
2026-04-27 15:43 34.11044 -110.83440 34018 ft 488 kts 351°
2026-04-27 15:44 34.17825 -110.83162 34016 ft 487 kts 351°
2026-04-27 15:44 34.24606 -110.82884 34014 ft 487 kts 351°
2026-04-27 15:45 34.31377 -110.82606 34015 ft 487 kts 351°
2026-04-27 15:45 34.38159 -110.82326 34010 ft 487 kts 351°
2026-04-27 15:46 34.44923 -110.82047 34033 ft 487 kts 350°
2026-04-27 15:46 34.51705 -110.81768 34024 ft 487 kts 350°
2026-04-27 15:47 34.58485 -110.81488 34009 ft 488 kts 351°
2026-04-27 15:47 34.65270 -110.81206 34007 ft 488 kts 351°
2026-04-27 15:48 34.72009 -110.80926 34026 ft 488 kts 350°
2026-04-27 15:49 34.82181 -110.80505 34066 ft 488 kts 350°
2026-04-27 15:49 34.88960 -110.80221 34082 ft 487 kts 350°
2026-04-27 15:50 34.95741 -110.79938 34117 ft 488 kts 349°
2026-04-27 15:50 35.02529 -110.79654 34114 ft 488 kts 349°
2026-04-27 15:51 35.09310 -110.79387 34101 ft 487 kts 349°
2026-04-27 15:51 35.16072 -110.79203 34020 ft 486 kts 348°
2026-04-27 15:52 35.22832 -110.79038 34000 ft 486 kts 348°
2026-04-27 15:52 35.29586 -110.78863 33991 ft 485 kts 348°
2026-04-27 15:53 35.36330 -110.78680 33993 ft 485 kts 348°
2026-04-27 15:53 35.43076 -110.78496 33989 ft 485 kts 348°
2026-04-27 15:54 35.49822 -110.78311 33993 ft 485 kts 348°
2026-04-27 15:54 35.56562 -110.78125 33986 ft 485 kts 348°
2026-04-27 15:55 35.63306 -110.77940 34006 ft 484 kts 348°
2026-04-27 15:55 35.70007 -110.77756 33984 ft 485 kts 348°
2026-04-27 15:56 35.76750 -110.77570 33979 ft 485 kts 348°
2026-04-27 15:56 35.83493 -110.77384 33977 ft 485 kts 348°
2026-04-27 15:57 35.90240 -110.77197 33992 ft 485 kts 348°
2026-04-27 15:57 35.96993 -110.77010 33979 ft 485 kts 348°
2026-04-27 15:58 36.03746 -110.76823 33974 ft 486 kts 348°
2026-04-27 15:58 36.10504 -110.76634 33993 ft 485 kts 348°
2026-04-27 15:59 36.17260 -110.76446 33974 ft 485 kts 348°
2026-04-27 15:59 36.24011 -110.76257 33957 ft 485 kts 348°
2026-04-27 16:00 36.30759 -110.76068 33960 ft 485 kts 348°
2026-04-27 16:00 36.37504 -110.75880 33972 ft 485 kts 348°
2026-04-27 16:01 36.44258 -110.75691 33956 ft 485 kts 349°
2026-04-27 16:01 36.51005 -110.75500 33950 ft 485 kts 349°
2026-04-27 16:02 36.57739 -110.75310 33943 ft 484 kts 348°
2026-04-27 16:02 36.64467 -110.75121 33944 ft 483 kts 348°
2026-04-27 16:03 36.71189 -110.74931 33941 ft 483 kts 348°
2026-04-27 16:03 36.77859 -110.74742 33948 ft 482 kts 348°
2026-04-27 16:04 36.84574 -110.74553 33948 ft 483 kts 349°
2026-04-27 16:04 36.91298 -110.74362 33935 ft 483 kts 349°
2026-04-27 16:05 36.98023 -110.74171 33941 ft 483 kts 349°
2026-04-27 16:05 37.04744 -110.73979 33961 ft 483 kts 349°
2026-04-27 16:06 37.11464 -110.73787 33928 ft 483 kts 349°
2026-04-27 16:06 37.18174 -110.73595 33917 ft 482 kts 349°
2026-04-27 16:07 37.24882 -110.73402 33918 ft 482 kts 349°
2026-04-27 16:07 37.31593 -110.73211 33919 ft 482 kts 350°
2026-04-27 16:08 37.38296 -110.73018 33906 ft 482 kts 350°
2026-04-27 16:08 37.44994 -110.72824 33906 ft 481 kts 350°
2026-04-27 16:09 37.51686 -110.72632 33926 ft 481 kts 351°
2026-04-27 16:09 37.61727 -110.72341 33893 ft 481 kts 351°
2026-04-27 16:10 37.75075 -110.71954 33916 ft 480 kts 352°
2026-04-27 16:11 37.85079 -110.71663 33908 ft 479 kts 352°
2026-04-27 16:12 37.95029 -110.71372 33920 ft 479 kts 352°
2026-04-27 16:13 38.05053 -110.71079 33895 ft 478 kts 352°
2026-04-27 16:13 38.14966 -110.70788 33932 ft 476 kts 352°
2026-04-27 16:14 38.28304 -110.70401 34014 ft 487 kts 353°
2026-04-27 16:15 38.41999 -110.70000 34034 ft 495 kts 353°
2026-04-27 16:16 38.55696 -110.70563 34003 ft 492 kts 350°
2026-04-27 16:17 38.69367 -110.71250 33909 ft 491 kts 351°
2026-04-27 16:18 38.83000 -110.71859 33908 ft 489 kts 351°
2026-04-27 16:19 38.89804 -110.72167 33916 ft 489 kts 351°
2026-04-27 16:20 39.03391 -110.72786 33933 ft 488 kts 351°
2026-04-27 16:21 39.13570 -110.73250 33928 ft 488 kts 351°
2026-04-27 16:22 39.27127 -110.73871 33941 ft 488 kts 351°
2026-04-27 16:22 39.37303 -110.74339 33957 ft 488 kts 351°
2026-04-27 16:23 39.47481 -110.74808 34028 ft 488 kts 351°
2026-04-27 16:24 39.54282 -110.75122 34025 ft 489 kts 351°
2026-04-27 16:25 39.67806 -110.76383 34043 ft 485 kts 346°
2026-04-27 16:26 39.81209 -110.78592 34018 ft 486 kts 346°
2026-04-27 16:27 39.94641 -110.80681 34036 ft 486 kts 346°
2026-04-27 16:28 40.10304 -110.83099 34026 ft 485 kts 347°
2026-04-27 16:29 40.28091 -110.85866 34045 ft 483 kts 347°
2026-04-27 16:30 40.40339 -110.87781 34014 ft 484 kts 347°
2026-04-27 16:31 40.57059 -110.90405 33988 ft 484 kts 347°
2026-04-27 16:32 40.67084 -110.91984 33998 ft 484 kts 347°
2026-04-27 16:33 40.77130 -110.93571 33986 ft 484 kts 347°
2026-04-27 16:33 40.83812 -110.94630 33979 ft 484 kts 347°
2026-04-27 16:34 40.90503 -110.95693 33977 ft 484 kts 347°
2026-04-27 16:34 40.97187 -110.96756 33983 ft 484 kts 347°
2026-04-27 16:35 41.03865 -110.97820 33993 ft 484 kts 347°
2026-04-27 16:36 41.13895 -110.99424 34020 ft 484 kts 348°
2026-04-27 16:36 41.20583 -111.00495 34015 ft 484 kts 348°
2026-04-27 16:37 41.27259 -111.01567 34030 ft 483 kts 348°
2026-04-27 16:37 41.33935 -111.02641 34015 ft 483 kts 348°
2026-04-27 16:38 41.40599 -111.03716 34015 ft 482 kts 348°
2026-04-27 16:38 41.47260 -111.04792 34027 ft 482 kts 348°
2026-04-27 16:39 41.53926 -111.05871 33988 ft 482 kts 348°
2026-04-27 16:39 41.60583 -111.06951 33992 ft 482 kts 348°
2026-04-27 16:40 41.67240 -111.08034 34007 ft 482 kts 348°
2026-04-27 16:40 41.73853 -111.09111 33993 ft 482 kts 348°
2026-04-27 16:41 41.80549 -111.10204 33985 ft 482 kts 348°
2026-04-27 16:41 41.87155 -111.11285 34001 ft 481 kts 349°
2026-04-27 16:42 41.93802 -111.12374 33987 ft 481 kts 349°
2026-04-27 16:42 42.00442 -111.13464 33976 ft 480 kts 349°
2026-04-27 16:43 42.07064 -111.14557 33997 ft 479 kts 349°
2026-04-27 16:43 42.13675 -111.15647 33975 ft 478 kts 349°
2026-04-27 16:44 42.20269 -111.16736 33979 ft 477 kts 349°
2026-04-27 16:44 42.26854 -111.17827 33998 ft 477 kts 349°
2026-04-27 16:45 42.33440 -111.18920 33989 ft 477 kts 349°
2026-04-27 16:45 42.40019 -111.20015 33988 ft 476 kts 349°
2026-04-27 16:46 42.46600 -111.21112 34000 ft 477 kts 349°
2026-04-27 16:46 42.53187 -111.22213 34000 ft 477 kts 349°
2026-04-27 16:47 42.59772 -111.23315 34008 ft 477 kts 349°
2026-04-27 16:47 42.66367 -111.24422 34017 ft 478 kts 349°
2026-04-27 16:48 42.72965 -111.25531 34006 ft 478 kts 349°
2026-04-27 16:48 42.79578 -111.26646 34006 ft 478 kts 349°
2026-04-27 16:49 42.89453 -111.28314 33998 ft 479 kts 349°
2026-04-27 16:49 42.96064 -111.29434 34001 ft 479 kts 349°
2026-04-27 16:50 43.02686 -111.30559 34009 ft 479 kts 350°
2026-04-27 16:50 43.09308 -111.31685 34010 ft 480 kts 349°
2026-04-27 16:51 43.15935 -111.32815 34006 ft 480 kts 349°
2026-04-27 16:51 43.22552 -111.33946 34022 ft 479 kts 349°
2026-04-27 16:52 43.29170 -111.35079 34005 ft 479 kts 349°
2026-04-27 16:52 43.35785 -111.36215 34032 ft 479 kts 350°
2026-04-27 16:53 43.42392 -111.37351 34026 ft 478 kts 350°
2026-04-27 16:53 43.48994 -111.38489 34021 ft 478 kts 350°
2026-04-27 16:54 43.55585 -111.39628 34035 ft 477 kts 350°
2026-04-27 16:54 43.62171 -111.40768 34013 ft 477 kts 350°
2026-04-27 16:55 43.68756 -111.41911 34009 ft 476 kts 350°
2026-04-27 16:55 43.75330 -111.43055 34016 ft 476 kts 350°
2026-04-27 16:56 43.81896 -111.44199 34011 ft 476 kts 350°
2026-04-27 16:56 43.88454 -111.45345 34015 ft 475 kts 349°
2026-04-27 16:57 43.95016 -111.46494 34020 ft 475 kts 350°
2026-04-27 16:57 44.01577 -111.47645 34018 ft 476 kts 350°
2026-04-27 16:58 44.08146 -111.48801 34018 ft 476 kts 350°
2026-04-27 16:58 44.14709 -111.49958 34033 ft 475 kts 350°
2026-04-27 16:59 44.21233 -111.51110 34022 ft 475 kts 350°
2026-04-27 16:59 44.27789 -111.52271 34035 ft 475 kts 350°
2026-04-27 17:00 44.37613 -111.54015 34045 ft 474 kts 350°
2026-04-27 17:01 44.44157 -111.55180 34049 ft 474 kts 350°
2026-04-27 17:01 44.50707 -111.56349 34056 ft 474 kts 350°
2026-04-27 17:02 44.57251 -111.57520 34045 ft 475 kts 350°
2026-04-27 17:02 44.63804 -111.58694 34048 ft 474 kts 350°
2026-04-27 17:03 44.70352 -111.59871 34049 ft 475 kts 350°
2026-04-27 17:03 44.76906 -111.61051 34059 ft 475 kts 350°
2026-04-27 17:04 44.83454 -111.62233 34055 ft 475 kts 350°
2026-04-27 17:04 44.90006 -111.63419 34071 ft 475 kts 350°
2026-04-27 17:05 44.96564 -111.64608 34071 ft 475 kts 350°
2026-04-27 17:05 45.03126 -111.65800 34081 ft 476 kts 350°
2026-04-27 17:06 45.09693 -111.66997 34096 ft 476 kts 350°
2026-04-27 17:06 45.16260 -111.68196 34095 ft 476 kts 350°
2026-04-27 17:07 45.22828 -111.69398 34090 ft 476 kts 350°
2026-04-27 17:07 45.29353 -111.70595 34104 ft 476 kts 350°
2026-04-27 17:08 45.35927 -111.71804 34092 ft 477 kts 350°
2026-04-27 17:08 45.42498 -111.73015 34098 ft 477 kts 350°
2026-04-27 17:09 45.49080 -111.74231 34116 ft 477 kts 350°
2026-04-27 17:09 45.55664 -111.75450 34109 ft 477 kts 350°
2026-04-27 17:10 45.62243 -111.76671 34125 ft 477 kts 350°
2026-04-27 17:10 45.68819 -111.77894 34132 ft 476 kts 350°
2026-04-27 17:11 45.75383 -111.79118 34119 ft 476 kts 351°
2026-04-27 17:11 45.85220 -111.80958 34122 ft 475 kts 351°
2026-04-27 17:12 45.95048 -111.82803 34126 ft 475 kts 351°
2026-04-27 17:13 46.01600 -111.84037 34132 ft 475 kts 351°
2026-04-27 17:13 46.08156 -111.85274 34127 ft 475 kts 351°
2026-04-27 17:14 46.14716 -111.86515 34135 ft 475 kts 351°
2026-04-27 17:14 46.21268 -111.87758 34140 ft 475 kts 351°
2026-04-27 17:15 46.27816 -111.89002 34146 ft 475 kts 351°
2026-04-27 17:15 46.34365 -111.90250 34153 ft 474 kts 351°
2026-04-27 17:16 46.40903 -111.91499 34099 ft 474 kts 351°
2026-04-27 17:16 46.47433 -111.92749 34098 ft 473 kts 351°
2026-04-27 17:17 46.52865 -111.93792 34094 ft 473 kts 351°
2026-04-27 17:17 46.59388 -111.95047 34084 ft 473 kts 351°
2026-04-27 17:18 46.69235 -111.95958 34084 ft 474 kts 357°
2026-04-27 17:18 46.75833 -111.96157 34096 ft 474 kts 357°
2026-04-27 17:19 46.82439 -111.96430 34104 ft 475 kts 357°
2026-04-27 17:19 46.89045 -111.96765 34127 ft 475 kts 356°
2026-04-27 17:20 46.95649 -111.97116 34137 ft 475 kts 356°
2026-04-27 17:20 47.02264 -111.97468 34131 ft 475 kts 356°
2026-04-27 17:21 47.08829 -111.97814 34126 ft 475 kts 356°
2026-04-27 17:21 47.15480 -111.98164 34135 ft 475 kts 356°
2026-04-27 17:22 47.22041 -111.98511 34138 ft 474 kts 357°
2026-04-27 17:22 47.28639 -111.98861 34135 ft 475 kts 357°
2026-04-27 17:23 47.35240 -111.99212 34129 ft 475 kts 357°
2026-04-27 17:23 47.41842 -111.99564 34125 ft 474 kts 357°
2026-04-27 17:24 47.48437 -111.99933 34133 ft 474 kts 355°
2026-04-27 17:24 47.54869 -112.01854 34140 ft 472 kts 343°
2026-04-27 17:25 47.61151 -112.04657 34138 ft 472 kts 342°
2026-04-27 17:25 47.67442 -112.07473 34128 ft 472 kts 342°
2026-04-27 17:26 47.73733 -112.10231 34134 ft 472 kts 343°
2026-04-27 17:26 47.80034 -112.12967 34134 ft 471 kts 343°
2026-04-27 17:27 47.86322 -112.15697 34133 ft 471 kts 343°
2026-04-27 17:27 47.92609 -112.18434 34135 ft 470 kts 343°
2026-04-27 17:28 47.98889 -112.21177 34141 ft 470 kts 343°
2026-04-27 17:29 48.08255 -112.25283 34148 ft 469 kts 343°
2026-04-27 17:29 48.14512 -112.28035 34147 ft 469 kts 343°
2026-04-27 17:30 48.20766 -112.30791 34147 ft 469 kts 343°
2026-04-27 17:30 48.30134 -112.34934 34141 ft 467 kts 343°
2026-04-27 17:31 48.36366 -112.37699 34155 ft 466 kts 343°
2026-04-27 17:31 48.42581 -112.40464 34155 ft 466 kts 343°
2026-04-27 17:32 48.51875 -112.44612 34070 ft 463 kts 343°
2026-04-27 17:33 48.58045 -112.47373 34073 ft 462 kts 343°
2026-04-27 17:33 48.64204 -112.50137 34153 ft 461 kts 343°
2026-04-27 17:34 48.70344 -112.52900 34160 ft 459 kts 344°
2026-04-27 17:34 48.76469 -112.55663 34161 ft 458 kts 344°
2026-04-27 17:35 48.82576 -112.58425 34168 ft 458 kts 344°
2026-04-27 17:35 48.88675 -112.61189 34156 ft 457 kts 344°
2026-04-27 17:36 48.94769 -112.63959 34173 ft 457 kts 344°
2026-04-27 17:36 49.00870 -112.66740 34163 ft 458 kts 344°
2026-04-27 17:37 49.06976 -112.69529 34167 ft 458 kts 344°
2026-04-27 17:37 49.13073 -112.72322 34167 ft 458 kts 345°
2026-04-27 17:38 49.19177 -112.75125 34160 ft 458 kts 345°
2026-04-27 17:38 49.25276 -112.77932 34148 ft 458 kts 345°
2026-04-27 17:39 49.31374 -112.80748 34149 ft 457 kts 345°
2026-04-27 17:39 49.37465 -112.83567 34111 ft 457 kts 345°
2026-04-27 17:40 49.43550 -112.86390 34099 ft 457 kts 345°
2026-04-27 17:40 49.49641 -112.89223 34094 ft 457 kts 345°
2026-04-27 17:41 49.55725 -112.92061 34080 ft 456 kts 345°
2026-04-27 17:41 49.61759 -112.94883 34070 ft 456 kts 345°
2026-04-27 17:42 49.67832 -112.97730 34085 ft 456 kts 345°
2026-04-27 17:42 49.73896 -113.00580 34087 ft 455 kts 345°
2026-04-27 17:43 49.79952 -113.03435 34109 ft 454 kts 345°
2026-04-27 17:43 49.85993 -113.06289 34127 ft 454 kts 345°
2026-04-27 17:44 49.92030 -113.09149 34138 ft 453 kts 345°
2026-04-27 17:44 49.98060 -113.12013 34140 ft 453 kts 345°
2026-04-27 17:45 50.04075 -113.14878 34148 ft 452 kts 345°
2026-04-27 17:45 50.10084 -113.17747 34150 ft 452 kts 345°
2026-04-27 17:46 50.16094 -113.20624 34149 ft 452 kts 345°
2026-04-27 17:46 50.22089 -113.23502 34149 ft 451 kts 345°
2026-04-27 17:47 50.28079 -113.26386 34152 ft 450 kts 345°
2026-04-27 17:47 50.34060 -113.29272 34156 ft 450 kts 345°
2026-04-27 17:48 50.40035 -113.32162 34140 ft 449 kts 345°
2026-04-27 17:48 50.45997 -113.35055 34147 ft 448 kts 345°
2026-04-27 17:49 50.51948 -113.37950 34150 ft 447 kts 345°
2026-04-27 17:49 50.57882 -113.40843 34146 ft 447 kts 345°
2026-04-27 17:50 50.63813 -113.43743 34134 ft 446 kts 345°
2026-04-27 17:50 50.72645 -113.48076 34142 ft 445 kts 345°
2026-04-27 17:51 50.78552 -113.50983 34142 ft 445 kts 345°
2026-04-27 17:51 50.84458 -113.53898 34126 ft 444 kts 345°
2026-04-27 17:52 50.90394 -113.56834 34135 ft 444 kts 345°
2026-04-27 17:52 50.95294 -113.59265 34121 ft 444 kts 345°
2026-04-27 17:53 51.02139 -113.62670 34099 ft 444 kts 345°
2026-04-27 17:53 51.08034 -113.65609 34085 ft 444 kts 345°
2026-04-27 17:54 51.13920 -113.68553 34074 ft 444 kts 345°
2026-04-27 17:54 51.19816 -113.71510 34073 ft 444 kts 345°
2026-04-27 17:55 51.25709 -113.74473 34076 ft 444 kts 345°
2026-04-27 17:55 51.31605 -113.77446 34077 ft 444 kts 345°
2026-04-27 17:56 51.37487 -113.80420 34136 ft 443 kts 345°
2026-04-27 17:56 51.43363 -113.83398 34144 ft 443 kts 345°
2026-04-27 17:57 51.49235 -113.86383 34132 ft 442 kts 345°
2026-04-27 17:57 51.55100 -113.89371 34129 ft 442 kts 344°
2026-04-27 17:58 51.61053 -113.91564 34135 ft 438 kts 358°
2026-04-27 17:58 51.67102 -113.91012 34118 ft 436 kts 13°
2026-04-27 17:59 51.72992 -113.88650 34143 ft 436 kts 14°
2026-04-27 17:59 51.78907 -113.86183 33374 ft 443 kts 14°
2026-04-27 18:00 51.81892 -113.84954 32706 ft 441 kts 14°
2026-04-27 18:00 51.84853 -113.83745 32021 ft 438 kts 14°
2026-04-27 18:00 51.87794 -113.82553 31573 ft 435 kts 14°
2026-04-27 18:00 51.90733 -113.81364 31044 ft 435 kts 14°
2026-04-27 18:01 51.93674 -113.80174 30545 ft 435 kts 14°
2026-04-27 18:01 51.96614 -113.78984 30007 ft 436 kts 14°
2026-04-27 18:01 51.99522 -113.77806 29428 ft 437 kts 14°
2026-04-27 18:01 52.02530 -113.76584 28898 ft 443 kts 14°
2026-04-27 18:02 52.05545 -113.75358 28281 ft 449 kts 14°
2026-04-27 18:02 52.08536 -113.74140 27716 ft 449 kts 13°
2026-04-27 18:02 52.11566 -113.72904 27183 ft 450 kts 13°
2026-04-27 18:02 52.14607 -113.71661 26615 ft 452 kts 13°
2026-04-27 18:03 52.17665 -113.70410 26059 ft 453 kts 13°
2026-04-27 18:03 52.20727 -113.69156 25506 ft 455 kts 13°
2026-04-27 18:03 52.23801 -113.67894 24963 ft 456 kts 13°
2026-04-27 18:03 52.26873 -113.66632 24412 ft 453 kts 13°
2026-04-27 18:04 52.29907 -113.65383 23873 ft 446 kts 13°
2026-04-27 18:04 52.32893 -113.64152 23277 ft 441 kts 13°
2026-04-27 18:04 52.35856 -113.62930 22686 ft 438 kts 13°
2026-04-27 18:04 52.38799 -113.61714 22167 ft 434 kts 13°
2026-04-27 18:05 52.41708 -113.60510 21638 ft 430 kts 13°
2026-04-27 18:05 52.43625 -113.59716 21293 ft 428 kts 13°
2026-04-27 18:05 52.47471 -113.58121 20594 ft 425 kts 13°
2026-04-27 18:05 52.49365 -113.57334 20255 ft 423 kts 13°
2026-04-27 18:06 52.52210 -113.56151 19755 ft 421 kts 13°
2026-04-27 18:06 52.55044 -113.54971 19237 ft 419 kts 13°
2026-04-27 18:06 52.57869 -113.53794 18725 ft 418 kts 13°
2026-04-27 18:06 52.60680 -113.52620 18176 ft 416 kts 13°
2026-04-27 18:07 52.63514 -113.51783 17550 ft 413 kts
2026-04-27 18:07 52.66373 -113.51966 16986 ft 409 kts 356°
2026-04-27 18:07 52.69203 -113.52297 16451 ft 406 kts 356°
2026-04-27 18:07 52.72004 -113.52612 15962 ft 402 kts 356°
2026-04-27 18:08 52.74783 -113.52898 15458 ft 398 kts 356°
2026-04-27 18:08 52.77542 -113.53157 14979 ft 396 kts 356°
2026-04-27 18:08 52.80285 -113.53400 14485 ft 393 kts 357°
2026-04-27 18:08 52.83011 -113.53633 14012 ft 392 kts 357°
2026-04-27 18:09 52.85726 -113.53861 13475 ft 390 kts 357°
2026-04-27 18:09 52.88431 -113.54089 12964 ft 388 kts 357°
2026-04-27 18:09 52.91121 -113.54315 12481 ft 387 kts 357°
2026-04-27 18:09 52.93801 -113.54541 11986 ft 386 kts 357°
2026-04-27 18:10 52.96485 -113.54768 11504 ft 386 kts 357°
2026-04-27 18:10 52.99161 -113.54996 11010 ft 384 kts 357°
2026-04-27 18:10 53.01800 -113.55220 10717 ft 372 kts 357°
2026-04-27 18:10 53.04335 -113.55436 10540 ft 357 kts 357°
2026-04-27 18:11 53.06762 -113.55762 10371 ft 344 kts 354°
2026-04-27 18:11 53.09101 -113.56220 10201 ft 333 kts 353°
2026-04-27 18:11 53.11368 -113.56670 9994 ft 323 kts 353°
2026-04-27 18:11 53.13554 -113.57087 9968 ft 309 kts 353°
2026-04-27 18:12 53.15647 -113.57476 9931 ft 296 kts 353°
2026-04-27 18:12 53.17592 -113.58297 9822 ft 284 kts 330°
2026-04-27 18:12 53.19148 -113.60207 9652 ft 275 kts 315°
2026-04-27 18:12 53.20499 -113.62455 9319 ft 275 kts 312°
2026-04-27 18:13 53.21830 -113.64754 9021 ft 275 kts 312°
2026-04-27 18:13 53.23158 -113.67023 8803 ft 272 kts 313°
2026-04-27 18:13 53.24475 -113.69263 8595 ft 269 kts 313°
2026-04-27 18:13 53.25776 -113.71456 8495 ft 261 kts 313°
2026-04-27 18:14 53.27035 -113.73571 8420 ft 252 kts 314°
2026-04-27 18:14 53.28251 -113.75613 8310 ft 245 kts 313°
2026-04-27 18:14 53.29440 -113.77613 8092 ft 242 kts 313°
2026-04-27 18:14 53.30614 -113.79589 7925 ft 238 kts 313°
2026-04-27 18:15 53.31776 -113.81544 7706 ft 236 kts 313°
2026-04-27 18:15 53.32935 -113.83497 7446 ft 236 kts 313°
2026-04-27 18:15 53.34093 -113.85448 7201 ft 236 kts 313°
2026-04-27 18:15 53.35245 -113.87392 6989 ft 234 kts 313°
2026-04-27 18:16 53.36386 -113.89319 6784 ft 232 kts 313°
2026-04-27 18:16 53.37510 -113.91218 6706 ft 229 kts 313°
2026-04-27 18:16 53.38675 -113.93023 6590 ft 231 kts 327°
2026-04-27 18:16 53.40220 -113.93626 6290 ft 232 kts 10°
2026-04-27 18:17 53.41619 -113.92457 5930 ft 231 kts 48°
2026-04-27 18:17 53.42450 -113.90210 5646 ft 226 kts 75°
2026-04-27 18:17 53.42695 -113.87641 5421 ft 222 kts 89°
2026-04-27 18:17 53.42787 -113.85069 5259 ft 220 kts 89°
2026-04-27 18:18 53.42880 -113.82505 5118 ft 220 kts 90°
2026-04-27 18:18 53.42678 -113.80009 4927 ft 216 kts 121°
2026-04-27 18:18 53.41714 -113.78164 4812 ft 210 kts 139°
2026-04-27 18:18 53.40670 -113.76401 4596 ft 213 kts 136°
2026-04-27 18:19 53.39639 -113.74631 4398 ft 211 kts 136°
2026-04-27 18:19 53.38607 -113.72903 4204 ft 209 kts 137°
2026-04-27 18:19 53.37584 -113.71199 4047 ft 204 kts 137°
2026-04-27 18:19 53.36600 -113.69555 3867 ft 196 kts 137°
2026-04-27 18:20 53.35657 -113.67980 3684 ft 186 kts 137°
2026-04-27 18:20 53.34755 -113.66474 3463 ft 179 kts 137°
2026-04-27 18:20 53.33915 -113.65068 3255 ft 160 kts 137°
2026-04-27 18:20 53.33180 -113.63828 3051 ft 145 kts 138°
2026-04-27 18:21 53.32472 -113.62655 2838 ft 143 kts 137°
2026-04-27 18:21 53.31769 -113.61476 2670 ft 143 kts 137°
2026-04-27 18:21 53.31066 -113.60296 2495 ft 143 kts 138°
2026-04-27 18:21 53.30361 -113.59119 2354 ft 142 kts 137°
2026-04-27 18:22 53.29736 -113.58076 2362 ft 107 kts 135°
2026-04-27 18:22 53.29319 -113.57382 2376 ft 63 kts 135°
2026-04-27 18:22 53.29123 -113.57040 2381 ft 23 kts 121°
2026-04-27 18:22 53.29101 -113.56777 2374 ft 25 kts 92°
2026-04-27 18:23 53.29168 -113.56653 2367 ft 16 kts 324°
2026-04-27 18:23 53.29246 -113.56783 2367 ft 16 kts 314°
2026-04-27 18:23 53.29322 -113.56909 2367 ft 15 kts 315°
2026-04-27 18:23 53.29394 -113.57029 2367 ft 14 kts 315°
2026-04-27 18:24 53.29463 -113.57144 2367 ft 14 kts 315°
2026-04-27 18:24 53.29528 -113.57254 2367 ft 13 kts 315°
2026-04-27 18:24 53.29592 -113.57361 2366 ft 13 kts 315°
2026-04-27 18:24 53.29670 -113.57491 2359 ft 19 kts 315°
2026-04-27 18:25 53.29782 -113.57679 2346 ft 26 kts 315°
2026-04-27 18:25 53.29902 -113.57879 2341 ft 16 kts 315°
2026-04-27 18:25 53.29992 -113.57878 2341 ft 15 kts 43°
2026-04-27 18:25 53.30076 -113.57803 2341 ft 15 kts 334°
2026-04-27 18:26 53.30156 -113.57884 2341 ft 14 kts 14°
2026-04-27 18:26 53.30229 -113.57784 2341 ft 13 kts 45°
2026-04-27 18:26 53.30287 -113.57686 2341 ft 4 kts 45°
2026-04-27 18:26 53.30312 -113.57683 2341 ft 4 kts 330°
2026-04-27 18:27 53.30340 -113.57728 2341 ft 8 kts 315°
2026-04-27 18:27 53.30353 -113.57751 2341 ft 0 kts 315°